Dewpoint
57 57 57 56 56 56 55 56 56 56 56 56 56 56 56 56 56 56 56 56 56 56 55 56 55 56 56 55 56 57 57 55 51 49 45 35 54 66 61 65 61 66 70 55 47 41 37 37 44 49 53 56 56 57 57 58 62 62 59 57 50 52 56 56 55 56 60 58 60 61 61 61 61 63 63 64 61 61 58 59 57 57 59 60 61 62 62 63
56 56 56 56 56 56 57 57 56 56 56 56 56 56 56 56 56 56 57 57 57 56 56 56 56 56 56 55 56 57 56 54 51 46 40 57 65 62 67 65 65 66 69 43 37 33 30 29 43 51 53 55 58 55 56 60 60 60 56 55 52 57 58 60 60 59 59 59 61 61 63 62 61 63 63 60 61 60 57 55 56 58 60 62 62 62 63 63
57 56 56 56 57 57 57 56 56 56 56 56 56 56 56 56 56 56 56 56 56 56 56 56 56 56 56 55 57 57 55 52 49 37 49 70 65 65 65 69 62 66 59 34 32 32 28 27 43 51 55 54 56 52 56 56 59 60 59 51 55 58 59 63 62 60 61 62 60 61 61 62 64 62 64 62 59 57 56 54 55 57 59 60 62 62 62 62
57 56 56 56 57 57 56 56 56 56 56 56 56 57 56 56 56 56 56 56 56 56 56 56 56 56 56 56 57 57 54 49 32 37 57 68 65 66 67 66 64 66 35 33 33 32 29 29 43 52 55 55 51 53 50 54 56 55 56 54 55 56 59 62 65 63 61 62 61 61 61 61 63 64 63 62 58 58 58 56 53 55 59 60 61 61 61 61
56 56 56 57 56 56 56 56 56 57 57 57 56 56 56 56 55 55 55 55 55 56 56 56 56 56 56 56 57 55 52 43 32 41 63 68 67 68 69 66 66 36 27 27 28 33 28 31 45 52 54 55 52 48 45 46 48 50 54 54 55 57 58 64 64 63 61 62 62 63 59 61 64 64 62 61 56 56 59 55 53 56 59 60 60 60 61 61
56 56 56 56 56 56 56 56 56 56 56 56 56 56 56 55 55 55 56 55 55 55 56 56 56 56 56 58 56 55 46 18 35 43 71 68 70 71 69 68 68 40 25 24 25 29 28 35 48 52 52 52 51 46 41 43 47 49 54 53 57 57 59 63 66 67 62 63 62 62 60 64 63 62 63 61 62 62 62 55 55 56 58 59 60 60 60 60
56 56 56 56 56 56 56 56 56 56 56 56 56 56 56 56 56 56 55 55 55 55 56 56 56 56 56 58 55 51 36 35 39 59 71 68 69 70 70 67 62 28 22 20 22 27 29 35 47 49 50 51 46 40 38 38 46 44 44 53 58 57 62 62 64 66 63 64 64 63 65 62 60 60 63 61 63 61 59 56 56 57 59 60 60 60 60 61
55 55 55 55 56 56 56 56 56 56 56 56 56 56 56 56 55 55 55 55 55 55 56 56 56 56 57 55 51 40 28 32 46 64 69 68 64 64 61 45 33 22 17 17 19 22 26 31 41 48 49 46 39 37 41 43 46 46 45 55 58 58 63 61 63 65 66 67 67 65 61 60 62 63 62 62 61 59 60 58 57 59 59 60 60 60 61 61
55 55 55 55 55 55 56 56 56 56 56 56 56 56 56 55 55 55 55 56 56 55 56 56 56 56 58 56 49 23 24 41 51 59 57 52 54 49 32 28 25 22 19 15 16 21 22 24 38 46 44 47 40 35 45 45 45 47 51 54 60 61 62 62 65 66 65 67 67 63 61 65 65 64 61 65 61 61 60 60 58 60 59 60 60 60 61 60
55 55 55 55 55 55 55 55 56 56 56 56 56 55 55 55 55 55 55 55 55 55 55 56 56 57 56 53 41 20 28 56 58 58 49 53 50 37 31 31 29 26 22 16 8 17 21 26 32 46 43 41 38 34 38 44 51 53 55 57 58 61 62 63 63 64 65 66 67 64 63 64 64 62 57 64 61 59 59 59 59 60 59 59 59 60 60 59
55 55 55 55 55 55 55 55 55 55 55 56 55 55 55 55 55 55 55 55 55 55 55 56 57 57 54 51 37 18 31 49 51 54 51 48 43 38 35 33 31 28 23 15 10 11 22 25 33 43 43 37 36 31 37 55 57 55 56 57 59 62 63 62 63 62 64 64 66 65 62 63 65 64 61 62 62 60 59 59 59 60 59 59 60 60 61 60
55 55 55 55 55 55 55 55 55 56 56 55 55 55 54 55 54 54 55 55 55 55 56 56 57 55 54 48 23 24 32 40 49 51 50 44 38 37 36 34 31 28 26 15 14 12 18 30 36 41 33 36 32 29 49 59 57 57 57 55 59 59 60 62 61 62 63 61 64 66 62 61 61 58 63 61 59 61 60 60 59 59 58 59 60 59 61 60
55 55 55 55 55 55 55 55 55 55 55 55 54 54 54 54 54 54 54 55 55 56 56 57 58 55 52 25 28 30 39 47 48 50 48 44 41 42 40 37 33 31 27 22 12 14 18 33 33 35 32 28 26 32 59 61 58 57 57 55 57 59 58 61 62 63 63 63 64 64 55 57 60 61 63 62 60 61 61 61 60 59 58 58 59 59 59 60
55 55 55 55 55 55 55 55 56 55 55 55 54 54 54 54 55 55 54 54 55 56 57 58 57 55 53 24 32 37 42 47 48 47 44 43 39 37 40 40 35 30 30 26 15 19 23 30 31 30 27 27 41 49 55 60 58 56 57 54 52 49 52 61 60 62 61 64 64 63 55 57 60 64 64 63 63 62 60 60 59 58 57 58 58 58 59 60
55 55 54 54 54 55 55 55 55 55 55 54 54 54 55 55 55 55 55 55 56 56 58 58 57 55 36 24 37 44 55 47 45 40 43 40 37 33 36 36 33 29 26 25 17 19 24 29 28 26 24 29 36 49 50 52 55 54 48 47 50 46 54 60 62 62 59 63 63 61 57 57 62 63 64 64 62 62 61 60 60 58 56 57 58 57 57 58
55 54 54 54 54 55 55 55 55 55 54 54 53 54 55 56 55 55 55 56 56 57 57 57 56 50 44 24 41 59 46 37 28 25 39 41 33 28 33 31 29 26 25 20 21 22 25 23 26 25 27 35 40 44 42 44 47 52 46 46 48 48 51 55 61 63 63 60 62 61 57 58 60 63 64 64 63 63 61 61 60 57 56 56 57 56 57 57
55 54 54 54 54 54 55 55 55 55 54 53 53 54 57 57 56 57 57 59 58 57 55 50 49 49 23 29 34 36 25 27 29 30 36 39 32 30 30 28 26 22 21 21 20 22 27 24 31 32 32 36 38 41 40 37 40 42 45 41 49 45 46 48 60 62 62 60 58 60 58 58 59 62 63 64 63 63 62 61 60 58 57 57 56 55 55 56
55 55 54 54 54 54 55 55 55 54 53 53 53 55 57 58 58 59 58 58 55 54 54 53 51 39 24 28 23 24 28 29 29 27 30 33 28 28 28 27 25 22 22 23 26 26 33 27 30 29 28 33 41 39 35 30 28 33 35 37 47 50 51 50 52 59 60 60 58 58 56 58 60 61 62 63 64 63 62 61 61 59 57 57 55 55 55 56
55 55 55 54 54 54 54 54 54 54 53 53 54 56 58 59 58 56 51 52 51 49 40 32 34 25 19 24 28 29 31 33 31 27 29 30 27 27 28 29 24 24 23 26 32 28 34 28 29 28 24 32 35 36 35 38 38 36 37 39 43 45 47 48 50 60 58 57 57 56 54 58 60 60 62 64 65 64 63 61 62 60 59 58 56 54 54 55
55 55 55 54 54 54 54 54 54 53 52 52 55 56 56 49 50 46 50 48 30 31 30 30 31 30 28 28 27 31 34 33 24 23 26 29 28 26 24 25 22 23 18 23 30 25 31 25 25 23 22 29 39 41 39 40 39 38 34 33 36 40 42 55 57 59 61 59 55 56 57 57 58 59 61 63 64 64 63 61 60 60 59 58 56 54 54 55
55 55 55 54 54 54 54 54 53 52 51 50 49 47 26 26 24 21 29 27 31 34 33 32 31 30 28 30 31 31 25 21 21 22 27 30 28 22 18 20 17 17 18 26 26 27 27 25 23 25 27 27 27 29 32 33 31 28 27 29 34 39 40 54 57 61 62 60 54 56 57 57 59 59 61 63 63 62 61 61 60 59 58 59 58 55 54 55
55 55 55 54 54 53 53 53 53 52 50 52 51 26 25 25 27 33 36 25 32 33 34 33 35 31 32 33 34 34 31 20 21 22 26 27 23 21 14 17 12 14 18 19 22 23 22 17 21 25 26 27 27 26 25 24 24 24 25 30 32 36 47 56 59 59 62 60 55 55 54 55 58 59 60 61 61 60 59 61 60 60 59 59 59 56 55 53
55 55 55 54 53 53 53 53 52 50 54 53 34 29 26 29 33 38 36 33 29 33 31 30 27 24 26 33 36 36 26 20 19 21 23 26 19 18 15 14 12 11 13 13 12 17 16 15 17 22 24 25 26 27 25 24 23 23 24 25 27 40 40 43 57 55 59 56 55 55 53 54 58 59 59 61 61 61 63 62 62 64 62 60 58 57 55 53
55 55 54 54 53 52 53 52 51 53 52 39 31 30 33 32 33 36 36 31 25 28 24 26 22 21 20 21 33 33 19 21 20 23 29 26 20 22 21 17 14 13 10 9 10 10 9 11 18 17 19 21 21 23 23 22 20 20 22 23 24 28 39 34 47 54 56 58 59 55 54 52 57 57 58 61 62 63 64 63 63 62 64 62 61 58 58 55
55 54 54 54 53 52 51 50 50 39 41 41 33 34 37 39 40 37 35 34 29 22 26 28 29 21 23 26 33 30 21 23 23 24 28 26 22 22 20 22 22 15 17 16 15 8 9 10 11 12 15 17 16 16 17 17 18 17 18 19 22 22 30 33 48 44 43 44 57 54 50 45 54 54 55 58 60 61 63 62 61 62 63 63 60 58 57 58
54 54 54 53 53 51 51 45 36 34 34 29 32 36 39 36 37 43 37 26 11 8 14 19 18 19 22 20 20 20 21 21 24 25 27 30 30 23 21 20 21 17 18 19 16 14 16 18 16 12 12 12 11 9 10 13 13 14 15 19 21 22 24 38 46 45 35 37 55 54 44 42 52 53 53 58 60 60 62 62 63 61 63 63 62 61 58 56
54 54 54 53 53 51 47 20 41 36 27 28 35 37 38 38 52 42 36 11 8 7 10 8 12 15 19 18 19 19 17 19 26 27 28 33 28 26 23 18 21 20 20 22 22 17 18 20 18 18 16 15 14 12 12 10 7 7 26 18 24 25 31 41 39 39 35 42 50 53 48 45 43 45 52 57 59 60 60 61 63 62 61 63 63 61 59 56
54 54 53 53 52 51 50 49 38 27 27 36 38 36 40 49 50 43 35 16 9 11 8 9 10 15 14 14 15 17 17 19 22 23 26 33 29 26 23 19 19 19 21 21 17 16 19 19 18 18 17 13 11 11 18 15 10 15 29 23 18 24 32 39 37 37 37 39 34 49 54 46 41 46 53 55 55 59 60 61 62 64 62 62 63 61 59 57
54 54 53 53 52 51 50 48 46 23 33 39 36 40 41 51 42 36 27 12 11 11 12 10 14 11 11 14 15 17 17 18 18 21 27 29 29 26 21 22 22 21 22 20 16 18 21 21 20 20 18 14 18 18 17 16 11 20 25 28 27 31 36 37 36 39 42 41 37 39 48 42 35 43 51 54 51 52 57 62 64 63 61 61 61 62 59 58
54 53 53 52 51 51 50 50 42 37 40 39 43 43 43 41 37 31 12 12 14 8 9 9 9 9 9 11 13 15 16 18 20 21 25 27 27 27 26 26 23 22 20 21 19 17 21 26 28 21 22 24 24 19 16 15 11 35 31 31 32 31 34 38 36 42 39 34 36 35 42 43 36 41 49 51 51 50 51 58 65 65 63 60 61 62 60 57
53 53 52 52 48 47 46 38 36 40 41 48 45 41 40 39 31 23 16 13 13 8 7 9 8 9 8 11 11 14 17 19 20 20 21 22 23 23 22 23 23 20 18 19 17 19 21 23 25 24 27 27 22 19 17 14 26 32 29 29 30 33 38 39 42 43 35 31 36 40 42 44 41 40 48 52 52 53 50 53 61 65 64 61 61 60 59 58
52 51 52 51 50 50 38 18 44 45 48 46 42 37 35 28 21 19 12 11 13 6 5 7 10 9 9 12 12 13 15 18 21 19 18 18 19 18 19 19 19 18 16 15 15 18 19 20 22 23 28 28 28 21 22 26 35 28 26 31 27 32 36 33 40 34 31 29 39 43 44 46 43 43 45 47 49 51 54 52 56 62 63 60 59 60 61 59
51 51 50 51 51 48 46 50 49 52 50 43 38 33 29 25 23 13 10 4 8 12 9 13 10 11 11 13 13 16 17 17 20 21 22 20 19 19 20 20 20 19 16 17 15 13 15 19 21 24 25 31 28 21 27 29 36 30 27 26 25 23 26 25 27 30 30 32 40 41 47 41 42 48 51 53 54 56 54 55 54 59 63 63 60 61 60 61
51 51 53 52 50 49 50 54 52 51 43 39 37 28 28 21 18 27 15 6 12 14 11 10 11 12 12 11 14 15 15 16 17 17 21 21 18 19 20 20 20 18 18 17 14 14 10 16 20 21 21 29 28 24 23 23 32 29 28 26 22 20 18 23 23 24 26 27 38 45 42 40 40 51 54 54 56 58 58 57 55 56 60 63 64 61 59 61
50 51 54 53 52 51 50 49 52 51 44 33 27 24 24 20 16 10 9 10 13 13 11 12 12 12 13 13 15 15 15 16 17 19 18 19 17 17 18 17 21 19 17 16 18 18 17 16 24 29 28 31 28 32 31 31 28 33 31 30 27 22 22 18 18 21 25 28 38 46 39 41 47 53 54 56 54 57 58 58 57 55 56 61 61 61 58 60
50 54 53 52 51 50 50 48 49 49 43 28 22 24 20 19 12 11 13 18 15 16 11 11 12 10 11 12 15 14 19 19 16 19 19 18 19 18 19 18 18 19 19 18 18 16 18 16 22 28 31 29 30 34 33 32 25 37 33 26 24 31 28 27 31 26 35 37 35 41 40 37 48 47 53 53 54 56 58 58 58 57 55 59 60 61 60 61
43 50 50 48 52 51 52 51 48 46 37 27 22 21 20 18 21 16 27 22 22 16 10 8 11 9 11 9 12 13 15 16 13 13 20 19 19 18 17 18 19 19 19 19 18 18 16 17 21 24 26 30 33 32 34 36 34 34 29 38 36 34 31 32 28 34 30 28 29 32 39 37 40 40 50 52 54 56 58 59 60 59 59 57 59 61 62 61
48 44 48 40 46 52 53 52 48 43 34 23 21 30 25 20 22 22 25 22 22 15 9 8 13 11 11 10 10 11 14 12 15 13 20 18 17 19 15 16 17 18 19 19 20 20 18 17 19 20 20 25 32 32 30 36 35 34 31 40 32 33 28 29 29 29 32 27 27 27 29 37 44 45 50 52 55 57 58 60 60 59 58 58 59 62 63 63
51 41 33 41 50 50 51 53 47 39 29 20 19 23 23 27 25 24 26 25 22 19 7 6 7 12 13 10 11 11 12 10 11 10 13 19 15 18 17 18 16 17 19 18 18 18 21 14 15 20 18 22 24 26 24 24 30 33 35 40 39 35 38 42 28 28 29 28 27 27 31 33 51 52 56 56 59 59 59 59 61 59 60 58 59 61 62 62
35 31 30 42 48 51 52 48 41 32 25 18 16 18 27 23 24 26 26 25 23 14 7 6 7 10 10 11 11 10 13 11 9 13 8 17 12 19 17 17 17 17 18 19 17 18 21 24 17 12 18 19 18 22 27 32 30 30 25 29 35 36 37 34 33 26 25 28 30 34 33 39 53 58 58 58 59 61 60 61 62 61 61 57 60 63 63 64
37 33 32 41 43 50 49 43 32 26 21 21 24 25 23 23 23 24 25 26 25 21 15 5 7 7 12 11 10 10 12 11 12 10 12 13 11 18 17 19 19 16 18 18 19 19 22 22 19 18 15 21 31 34 36 35 36 34 33 37 35 34 37 29 28 29 25 23 26 26 29 48 54 58 58 57 59 60 61 62 62 61 61 60 62 62 63 63
34 23 31 41 46 44 41 31 27 33 27 20 13 19 26 35 26 26 25 26 25 21 15 12 10 8 11 11 13 13 12 12 13 11 12 9 14 13 19 22 21 19 17 19 18 21 23 22 21 19 17 18 28 33 35 36 39 38 34 36 35 37 36 34 27 41 29 25 28 32 29 39 55 58 57 58 59 60 62 61 61 63 63 61 61 61 63 64
25 28 38 44 47 41 34 29 37 32 22 20 26 24 27 28 26 26 24 22 20 21 15 8 9 8 11 12 13 10 13 12 13 12 13 12 12 15 22 23 24 22 16 16 17 23 40 24 20 20 24 21 27 30 36 38 37 41 36 35 34 32 34 35 38 37 31 32 26 27 28 42 55 58 58 59 60 60 62 61 63 63 63 62 60 63 64 64
37 35 37 44 44 42 35 28 28 24 22 30 27 26 28 29 27 25 21 23 19 15 13 9 7 8 15 12 13 13 16 16 16 14 15 17 15 21 22 23 22 20 13 20 18 25 15 30 24 18 20 23 23 26 24 33 32 32 37 41 40 35 36 38 38 41 35 35 33 32 28 47 53 57 58 58 58 59 60 61 63 63 63 61 64 63 64 66
41 37 37 39 44 39 30 29 30 27 26 26 25 25 27 29 29 29 28 24 24 21 15 9 6 8 10 14 15 17 18 12 18 15 16 16 15 22 24 24 24 20 20 38 45 21 16 22 27 19 18 16 17 19 26 30 29 32 40 37 41 38 32 40 33 37 30 46 43 35 29 47 53 56 54 57 58 58 60 60 63 65 63 63 62 64 66 67
37 33 33 35 37 35 37 41 36 33 29 31 29 24 27 27 30 29 30 26 24 24 18 12 7 8 10 12 15 14 16 17 13 22 18 14 16 21 24 24 24 22 46 55 46 27 22 26 27 26 21 16 22 29 25 25 23 24 30 39 40 38 38 35 36 38 33 41 40 42 48 47 49 53 54 55 58 57 58 60 60 63 63 64 64 64 65 66
40 33 37 31 36 34 32 37 35 34 29 32 31 28 29 25 29 29 24 21 15 17 18 15 9 9 13 12 12 13 13 15 19 22 22 16 18 19 24 24 23 33 54 45 39 26 31 25 26 32 29 24 22 28 25 29 26 33 35 35 35 34 37 33 31 34 41 41 29 50 51 48 48 52 56 57 57 58 58 59 60 62 63 63 64 64 64 65
39 41 43 47 40 32 34 33 37 37 38 37 32 35 28 27 29 27 27 24 17 15 12 16 13 8 10 11 15 16 23 21 25 22 18 19 19 20 18 21 19 40 44 28 29 26 26 25 33 26 22 23 26 30 32 34 33 37 35 34 33 35 34 34 39 40 42 38 37 49 53 50 51 54 56 57 57 57 57 59 61 63 63 63 65 64 64 65
41 40 38 45 40 38 39 42 40 40 40 36 37 37 31 29 29 28 29 27 21 23 14 17 13 10 8 11 16 18 28 21 24 25 26 23 19 21 20 20 19 20 21 22 26 37 30 24 30 25 25 25 28 30 35 35 39 34 33 33 35 34 35 37 40 42 42 45 44 48 51 51 54 55 56 57 58 59 61 61 60 62 62 63 63 65 65 65
39 37 36 35 35 34 38 40 40 41 36 42 39 36 34 32 29 33 32 30 27 20 14 13 13 10 9 12 23 17 24 21 21 24 30 23 24 26 21 21 19 22 19 22 24 37 27 31 34 28 28 27 26 32 34 35 37 37 36 36 34 34 34 35 39 43 45 45 43 48 51 51 55 57 58 58 58 59 60 60 61 62 62 62 63 62 64 65
44 48 50 42 36 31 36 33 38 40 38 40 37 36 37 34 32 36 35 34 30 27 20 13 11 14 14 14 17 16 15 20 21 18 24 24 22 22 21 24 19 20 20 24 25 30 26 28 30 30 28 26 27 28 31 37 34 37 37 36 37 36 35 37 40 45 46 44 44 47 48 50 54 56 57 56 58 58 59 60 61 61 61 62 62 63 63 64
51 50 49 49 40 47 35 38 36 36 34 36 36 36 37 34 37 38 36 34 34 32 31 29 25 19 21 18 18 16 14 14 17 19 22 19 17 18 17 17 17 21 22 24 30 25 28 27 26 29 28 27 30 27 28 30 29 27 28 37 40 41 43 42 39 42 44 48 47 46 49 55 56 57 55 55 57 57 58 60 60 61 62 62 62 62 63 64